Torna al catalogo

SL-14 R/B

AttivoPO
NORAD 19791·ROCKET BODY·🇷🇺 Russia

Lanciato Feb 10, 1989 da Plesetsk Cosmodrome

Loading…

Prossimi Passaggi (prossime 24 ore)

TLE

AggiornatoSource: Space-Track

Epoca: Sep 14, 2026, 00:22 UTC

1 19791U 89009G   26257.01538251 -.00000010  00000-0 -12947-3 0  9999
2 19791  82.6083  76.5004 0035643 101.9318  71.9346 12.54882445721690

Traccia SL-14 R/B in tempo reale con AllMySat

Download on the App Store